TimeCST,TemperatureF,Dew PointF,Humidity,Sea Level PressureIn,VisibilityMPH,Wind Direction,Wind SpeedMPH,Gust SpeedMPH,PrecipitationIn,Events,Conditions,WindDirDegrees,DateUTC
12:15 AM,37.4,19.4,48,30.14,10.0,SE,9.2,-,N/A,,Clear,130,2012-12-13 06:15:00
12:35 AM,35.6,19.4,52,30.14,10.0,SE,9.2,-,N/A,,Clear,130,2012-12-13 06:35:00
12:55 AM,35.6,19.4,52,30.14,10.0,ESE,6.9,-,N/A,,Clear,110,2012-12-13 06:55:00
1:15 AM,35.6,19.4,52,30.14,10.0,ESE,9.2,-,N/A,,Clear,120,2012-12-13 07:15:00
1:55 AM,33.8,19.4,56,30.14,10.0,ESE,10.4,-,N/A,,Clear,120,2012-12-13 07:55:00
2:15 AM,33.8,19.4,56,30.14,10.0,ESE,10.4,-,N/A,,Clear,120,2012-12-13 08:15:00
2:35 AM,33.8,21.2,60,30.14,10.0,ESE,9.2,-,N/A,,Clear,120,2012-12-13 08:35:00
2:55 AM,33.8,21.2,60,30.14,10.0,ESE,10.4,-,N/A,,Clear,120,2012-12-13 08:55:00
3:15 AM,33.8,21.2,60,30.14,10.0,ESE,9.2,-,N/A,,Clear,120,2012-12-13 09:15:00
3:35 AM,33.8,21.2,60,30.14,10.0,SE,8.1,-,N/A,,Clear,130,2012-12-13 09:35:00
3:55 AM,33.8,21.2,60,30.13,10.0,SE,12.7,-,N/A,,Clear,130,2012-12-13 09:55:00
4:15 AM,33.8,21.2,60,30.13,10.0,SE,11.5,-,N/A,,Clear,130,2012-12-13 10:15:00
4:35 AM,33.8,21.2,60,30.12,10.0,SE,12.7,-,N/A,,Clear,140,2012-12-13 10:35:00
4:55 AM,33.8,21.2,60,30.13,10.0,SE,12.7,-,N/A,,Clear,140,2012-12-13 10:55:00
5:15 AM,33.8,21.2,60,30.13,10.0,SE,11.5,17.3,N/A,,Clear,140,2012-12-13 11:15:00
5:55 AM,32.0,21.2,64,30.14,10.0,SSE,11.5,-,N/A,,Clear,150,2012-12-13 11:55:00
6:15 AM,32.0,21.2,64,30.14,10.0,SSE,12.7,-,N/A,,Clear,150,2012-12-13 12:15:00
6:35 AM,32.0,21.2,64,30.14,10.0,SE,11.5,-,N/A,,Clear,140,2012-12-13 12:35:00
6:55 AM,32.0,21.2,64,30.16,10.0,SE,9.2,-,N/A,,Clear,140,2012-12-13 12:55:00
7:15 AM,32.0,21.2,64,30.16,10.0,SE,8.1,-,N/A,,Clear,140,2012-12-13 13:15:00
7:35 AM,32.0,21.2,64,30.16,10.0,SE,9.2,-,N/A,,Clear,140,2012-12-13 13:35:00
7:55 AM,32.0,23.0,69,30.17,10.0,SE,9.2,-,N/A,,Clear,130,2012-12-13 13:55:00
8:15 AM,33.8,23.0,65,30.17,10.0,SE,9.2,-,N/A,,Clear,140,2012-12-13 14:15:00
8:35 AM,35.6,23.0,60,30.17,10.0,SSE,9.2,-,N/A,,Clear,150,2012-12-13 14:35:00
8:55 AM,37.4,23.0,56,30.17,10.0,SSE,12.7,-,N/A,,Clear,150,2012-12-13 14:55:00
9:15 AM,39.2,23.0,52,30.17,10.0,SSE,12.7,-,N/A,,Clear,160,2012-12-13 15:15:00
9:55 AM,44.6,23.0,43,30.18,10.0,South,12.7,-,N/A,,Clear,170,2012-12-13 15:55:00
10:15 AM,44.6,23.0,43,30.19,10.0,South,12.7,-,N/A,,Clear,180,2012-12-13 16:15:00
10:35 AM,46.4,23.0,40,30.19,10.0,South,11.5,-,N/A,,Clear,170,2012-12-13 16:35:00
10:55 AM,50.0,24.8,37,30.19,10.0,South,8.1,-,N/A,,Clear,180,2012-12-13 16:55:00
11:15 AM,53.6,24.8,33,30.18,10.0,South,13.8,-,N/A,,Clear,190,2012-12-13 17:15:00
11:35 AM,53.6,24.8,33,30.17,10.0,SSW,11.5,-,N/A,,Clear,210,2012-12-13 17:35:00
11:55 AM,55.4,24.8,31,30.16,10.0,South,13.8,-,N/A,,Clear,190,2012-12-13 17:55:00
12:15 PM,57.2,26.6,31,30.15,10.0,SSW,15.0,-,N/A,,Clear,200,2012-12-13 18:15:00
12:35 PM,59.0,26.6,29,30.14,10.0,SSW,13.8,18.4,N/A,,Clear,200,2012-12-13 18:35:00
12:55 PM,60.8,26.6,27,30.13,10.0,South,15.0,-,N/A,,Clear,180,2012-12-13 18:55:00
1:15 PM,60.8,26.6,27,30.11,10.0,South,13.8,17.3,N/A,,Clear,170,2012-12-13 19:15:00
1:35 PM,62.6,26.6,26,30.10,10.0,South,13.8,-,N/A,,Clear,170,2012-12-13 19:35:00
1:55 PM,62.6,26.6,26,30.09,10.0,South,15.0,-,N/A,,Clear,190,2012-12-13 19:55:00
2:15 PM,64.4,26.6,24,30.09,10.0,South,15.0,-,N/A,,Clear,170,2012-12-13 20:15:00
2:35 PM,64.4,26.6,24,30.08,10.0,South,16.1,-,N/A,,Clear,170,2012-12-13 20:35:00
2:55 PM,64.4,26.6,24,30.08,10.0,South,18.4,21.9,N/A,,Clear,170,2012-12-13 20:55:00
3:15 PM,64.4,26.6,24,30.07,10.0,SSE,17.3,23.0,N/A,,Clear,160,2012-12-13 21:15:00
3:35 PM,62.6,26.6,26,30.07,10.0,SSE,16.1,-,N/A,,Clear,160,2012-12-13 21:35:00
3:55 PM,62.6,26.6,26,30.07,10.0,South,16.1,21.9,N/A,,Clear,170,2012-12-13 21:55:00
5:35 PM,55.4,26.6,33,30.08,10.0,SSE,12.7,-,N/A,,Clear,150,2012-12-13 23:35:00
6:15 PM,53.6,26.6,35,30.08,10.0,SE,11.5,-,N/A,,Clear,140,2012-12-14 00:15:00
6:55 PM,50.0,26.6,40,30.08,10.0,ESE,9.2,-,N/A,,Clear,120,2012-12-14 00:55:00
7:15 PM,50.0,28.4,43,30.08,10.0,ESE,10.4,-,N/A,,Clear,120,2012-12-14 01:15:00
7:55 PM,50.0,30.2,47,30.09,10.0,SE,12.7,-,N/A,,Clear,130,2012-12-14 01:55:00
8:15 PM,50.0,30.2,47,30.09,10.0,SE,13.8,-,N/A,,Clear,140,2012-12-14 02:15:00
8:35 PM,50.0,30.2,47,30.09,10.0,SE,11.5,-,N/A,,Clear,140,2012-12-14 02:35:00
8:55 PM,46.4,30.2,53,30.09,10.0,ESE,10.4,-,N/A,,Clear,120,2012-12-14 02:55:00
9:15 PM,46.4,30.2,53,30.09,10.0,ESE,11.5,-,N/A,,Clear,120,2012-12-14 03:15:00
9:35 PM,46.4,32.0,57,30.09,10.0,SE,11.5,-,N/A,,Clear,130,2012-12-14 03:35:00
9:55 PM,46.4,32.0,57,30.09,10.0,SE,9.2,-,N/A,,Clear,130,2012-12-14 03:55:00
10:15 PM,44.6,32.0,61,30.10,10.0,ESE,9.2,-,N/A,,Clear,120,2012-12-14 04:15:00
10:35 PM,46.4,32.0,57,30.10,10.0,ESE,11.5,-,N/A,,Clear,120,2012-12-14 04:35:00
10:55 PM,46.4,32.0,57,30.10,10.0,ESE,9.2,-,N/A,,Clear,120,2012-12-14 04:55:00
11:15 PM,46.4,33.8,62,30.10,10.0,SE,9.2,-,N/A,,Clear,130,2012-12-14 05:15:00
11:55 PM,44.6,33.8,66,30.10,10.0,SE,5.8,-,N/A,,Clear,130,2012-12-14 05:55:00